Weather in Yandoba

Russia / Chuvash Republic     55°43′27″N   46°58′27″E
temp.,
°C
wind,
m/s
gust,
m/s
humid.,
%
clouds,
%
prec.,
mm/h
press.,
hPa
HPBL,
m
23 april, fri
fri2300:00+5s228780 0.0 102314
03:00+5ssw228518 0.0 102429
06:00+5s23845 0.0 102471
09:00+11sse35635 0.0 1024579
12:00+14s3447100 0.1 10231849
15:00+14se444696 0.1 10211468
18:00+11se4965100 0.0 1021244
21:00+9se3977100 0.0 1020187
24 april, sat
sat2400:00+8ese3684100 0.0 1018107
03:00+7ese3486100 0.0 101762
06:00+7e3785100 0.0 1015190
09:00+9ese5774100 0.0 1014483
12:00+12ese5562100 0.0 10111312
15:00+9ese6877100 0.1 1010680
18:00+8ese688156 0.0 1008486
21:00+6ese61191100 0.0 1006377
25 april, sun
sun2500:00+7se51096100 2.8 1003491
03:00+4w61295100 3.8 1003829
06:00+4sw71185100 0.4 1003851
09:00+4sw8128993 0.4 1004888
12:00+3wsw81496100 0.3 1006904
15:00+9w914515 0.6 10072390
18:00+7wsw8135612 0.1 10091125
21:00+4wsw7136988 0.3 1011558
26 april, mon
mon2600:00+3sw714732 0.0 1012569
03:00+2sw6137821 0.0 1013393
06:00+3ssw6127385 0.0 1013585
09:00+7sw8125852 0.0 10131531
12:00+9wsw8124953 0.0 10131888
15:00+9sw795696 0.1 10131617
18:00+8sw476696 0.1 1012554
21:00+5ssw378096 0.1 1012165
27 april, tue
tue2700:00+4sw2285100 0.1 101129
03:00+4sw2491100 0.4 1010173
06:00+4w1296100 1.6 1008507
09:00+2nw4599100 2.7 1008267
12:00+3w48100100 5.1 1008386
15:00+7wsw476834 5.3 10081152
18:00+6w24745 0.5 100883
21:00+3ssw3378100 0.5 100933